Weather History for Keahole Point, HI

Change the Weather History Date:

Tuesday, November 27, 2012

  Actual Average Record
Temperature  
Mean Temperature 78 °F -  
Max Temperature 84 °F 81 °F 89 °F (1986)
Min Temperature 72 °F 69 °F 66 °F (1985)
Cooling Degree Days 13    
Growing Degree Days 28 (Base 50)    
Moisture  
Dew Point 60 °F    
Average Humidity 56    
Maximum Humidity 68    
Minimum Humidity 38    
Precipitation  
Precipitation 0.00 in - - ()
Sea Level Pressure  
Sea Level Pressure 30.00 in    
Wind  
Wind Speed 7 mph (NE)    
Max Wind Speed 21 mph    
Max Gust Speed 25 mph    
Visibility 10 miles    
Events      
Averages and records for this station are not official NWS values.
T = Trace of Precipitation, MM = Missing Value Source: NWS Daily Summary

Daily Weather History Graph

Daily Weather History Graph

Search for Another Location

Airport:

Trip Planner

Search our weather history database for the weather conditions in past years. The results will help you decide how hot, cold, wet, or windy it might be!

Date:

Astronomy

Nov. 27, 2012 Rise Set
Actual Time 6:40 AM HST 5:43 PM HST
Civil Twilight 6:16 AM HST 6:07 PM HST
Nautical Twilight 5:49 AM HST 6:34 PM HST
Astronomical Twilight 5:22 AM HST 7:01 PM HST
Moon 5:21 PM HST (11/27) 5:57 AM HST (11/27)
Length of Visible Light 11h 50m
Length of Day
11h 03m
Full, 100% of the Moon is Illuminated
Nov 27
Full
Nov 28
Full
Dec 6
Last Quarter
Dec 12
New
Dec 19
First Quarter

Hourly Weather History & Observations

Time (HST) Temp. Heat Index Dew Point Humidity Pressure Visibility Wind Dir Wind Speed Gust Speed Precip Events Conditions
12:53 AM 75.9 °F - 61.0 °F 60% 30.01 in 10.0 mi SE 3.5 mph - N/A   Scattered Clouds
1:53 AM 75.9 °F - 60.1 °F 58% 30.01 in 10.0 mi Variable 5.8 mph - N/A   Overcast
2:53 AM 75.0 °F - 60.1 °F 60% 30.00 in 10.0 mi ESE 3.5 mph - N/A   Clear
3:53 AM 75.0 °F - 61.0 °F 62% 29.99 in 10.0 mi North 6.9 mph - N/A   Overcast
4:53 AM 72.0 °F - 57.9 °F 61% 29.99 in 10.0 mi ENE 6.9 mph - N/A   Partly Cloudy
5:36 AM 73.4 °F - 57.2 °F 57% 30.00 in 10.0 mi NNE 9.2 mph - N/A   Clear
5:53 AM 72.0 °F - 59.0 °F 64% 30.01 in 10.0 mi North 8.1 mph - N/A   Clear
6:53 AM 73.9 °F - 57.9 °F 57% 30.03 in 10.0 mi North 10.4 mph - N/A   Mostly Cloudy
7:53 AM 75.9 °F - 59.0 °F 56% 30.04 in 10.0 mi ENE 12.7 mph - N/A   Partly Cloudy
8:53 AM 79.0 °F - 57.9 °F 48% 30.03 in 10.0 mi NNE 15.0 mph - N/A   Partly Cloudy
9:53 AM 82.0 °F 82.0 °F 57.9 °F 44% 30.03 in 10.0 mi NNE 20.7 mph 25.3 mph N/A   Clear
10:53 AM 84.9 °F 83.9 °F 57.0 °F 38% 30.02 in 10.0 mi NNE 9.2 mph 18.4 mph N/A   Mostly Cloudy
11:53 AM 84.9 °F 85.4 °F 62.1 °F 46% 29.99 in 10.0 mi Variable 4.6 mph 19.6 mph N/A   Mostly Cloudy
12:53 PM 84.0 °F 84.0 °F 60.1 °F 44% 29.98 in 10.0 mi North 11.5 mph - N/A   Overcast
1:53 PM 84.0 °F 84.5 °F 62.1 °F 47% 29.94 in 10.0 mi NNW 16.1 mph - N/A   Overcast
2:53 PM 82.9 °F 83.7 °F 62.1 °F 49% 29.94 in 10.0 mi SSE 6.9 mph 21.9 mph N/A   Mostly Cloudy
3:53 PM 81.0 °F 82.2 °F 63.0 °F 54% 29.94 in 10.0 mi SSW 9.2 mph - N/A   Clear
4:53 PM 80.1 °F 81.5 °F 63.0 °F 56% 29.95 in 10.0 mi SSE 6.9 mph - N/A   Scattered Clouds
5:53 PM 78.1 °F - 64.9 °F 64% 29.97 in 10.0 mi SSE 3.5 mph - N/A   Clear
6:53 PM 78.1 °F - 64.9 °F 64% 29.99 in 10.0 mi SSE 8.1 mph - N/A   Clear
7:53 PM 77.0 °F - 61.0 °F 58% 30.01 in 10.0 mi North 4.6 mph - N/A   Partly Cloudy
8:53 PM 75.0 °F - 62.1 °F 64% 30.02 in 10.0 mi NE 3.5 mph - N/A   Clear
9:53 PM 73.0 °F - 62.1 °F 68% 30.03 in 10.0 mi NNE 5.8 mph - N/A   Clear
10:53 PM 72.0 °F - 57.9 °F 61% 30.03 in 10.0 mi NNE 4.6 mph - N/A   Partly Cloudy
11:53 PM 72.0 °F - 59.0 °F 64% 30.03 in 10.0 mi NNW 3.5 mph - N/A   Clear